Weather History for KRAC - March, 2013

Change the Weather History Date:

Saturday, March 16, 2013

  Actual Average Record
Temperature  
Mean Temperature 30 °F -  
Max Temperature 33 °F 41 °F 70 °F (2015)
Min Temperature 28 °F 27 °F 11 °F (1979)
Degree Days  
Heating Degree Days 34    
Moisture  
Dew Point 24 °F    
Average Humidity 79    
Maximum Humidity 93    
Minimum Humidity 61    
Precipitation  
Precipitation 0.01 in - - ()
Sea Level Pressure  
Sea Level Pressure 29.96 in    
Wind  
Wind Speed 13 mph (North)    
Max Wind Speed 18 mph    
Max Gust Speed 25 mph    
Visibility 7 miles    
Events Rain , Snow    
Averages and records for this station are not official NWS values.
T = Trace of Precipitation, MM = Missing Value Source: NWS Daily Summary

Daily Weather History Graph

Daily Weather History Graph

Search for Another Location

Airport or City:

Trip Planner

Search our weather history database for the weather conditions in past years. The results will help you decide how hot, cold, wet, or windy it might be!

Date:

Astronomy

Mar. 16, 2013 Rise Set
Actual Time 7:01 AM CDT 6:59 PM CDT
Civil Twilight 6:32 AM CDT 7:27 PM CDT
Nautical Twilight 6:00 AM CDT 8:00 PM CDT
Astronomical Twilight 5:26 AM CDT 8:33 PM CDT
Moon 9:23 AM CDT (3/16) No Moon Set
Length of Visible Light 12h 54m
Length of Day
11h 58m
Waxing Crescent, 23% of the Moon is Illuminated
Mar 16
Waxing Crescent
Mar 19
First Quarter
Mar 27
Full
Apr 2
Last Quarter
Apr 10
New

Hourly Weather History & Observations

Time (CDT) Temp. Windchill Dew Point Humidity Pressure Visibility Wind Dir Wind Speed Gust Speed Precip Events Conditions
12:53 AM 33.1 °F 23.4 °F 30.0 °F 89% 29.83 in 10.0 mi NNE 13.8 mph 25.3 mph N/A   Overcast
1:53 AM 33.1 °F 22.6 °F 28.9 °F 85% 29.81 in 3.0 mi NE 16.1 mph 23.0 mph 0.01 in Snow Light Snow
2:53 AM 32.0 °F 21.2 °F 28.0 °F 85% 29.82 in 10.0 mi NE 16.1 mph - 0.00 in   Overcast
3:53 AM 32.0 °F 20.8 °F 27.0 °F 82% 29.81 in 10.0 mi NE 17.3 mph - N/A   Overcast
4:53 AM 32.0 °F 21.6 °F 28.0 °F 85% 29.80 in 5.0 mi NE 15.0 mph - N/A   Overcast
5:53 AM 30.9 °F 21.7 °F 28.0 °F 89% 29.83 in 4.0 mi NNE 11.5 mph - N/A   Overcast
6:05 AM 30.2 °F 20.2 °F 28.4 °F 93% 29.81 in 3.0 mi NNE 12.7 mph - 0.00 in Rain Light Freezing Rain
6:53 AM 30.9 °F 20.2 °F 27.0 °F 85% 29.86 in 4.0 mi NNE 15.0 mph 21.9 mph 0.00 in Rain Light Freezing Rain
7:53 AM 30.0 °F 17.9 °F 27.0 °F 88% 29.88 in 3.0 mi NNE 18.4 mph 24.2 mph 0.00 in Rain Light Freezing Rain
8:20 AM 30.2 °F 18.9 °F 26.6 °F 86% 29.87 in 2.5 mi NNE 16.1 mph - 0.00 in Rain Light Freezing Rain
8:37 AM 30.2 °F 18.9 °F 26.6 °F 86% 29.88 in 4.0 mi NNE 16.1 mph 23.0 mph 0.00 in Rain Light Freezing Rain
8:53 AM 30.0 °F 17.9 °F 26.1 °F 85% 29.91 in 8.0 mi NNE 18.4 mph 23.0 mph 0.00 in   Overcast
9:39 AM 30.2 °F 19.3 °F 26.6 °F 86% 29.90 in 5.0 mi North 15.0 mph - N/A   Overcast
9:50 AM 28.4 °F 16.2 °F 24.8 °F 86% 29.92 in 3.0 mi North 17.3 mph 24.2 mph N/A   Overcast
9:53 AM 28.0 °F 15.7 °F 24.1 °F 85% 29.94 in 3.0 mi North 17.3 mph 24.2 mph N/A   Overcast
10:08 AM 28.4 °F 17.0 °F 24.8 °F 86% 29.94 in 3.0 mi North 15.0 mph - 0.00 in Rain Light Freezing Rain
10:45 AM 28.4 °F 17.0 °F 24.8 °F 86% 29.96 in 6.0 mi North 15.0 mph - 0.00 in   Overcast
10:53 AM 28.0 °F 18.6 °F 24.1 °F 85% 29.99 in 7.0 mi North 10.4 mph - 0.00 in   Overcast
11:53 AM 28.0 °F 17.0 °F 23.0 °F 81% 30.02 in 10.0 mi North 13.8 mph - N/A   Overcast
12:53 PM 28.0 °F 16.5 °F 23.0 °F 81% 30.04 in 10.0 mi North 15.0 mph - N/A   Overcast
1:53 PM 30.0 °F 20.5 °F 23.0 °F 75% 30.04 in 10.0 mi North 11.5 mph - N/A   Overcast
2:11 PM 30.2 °F 20.2 °F 23.0 °F 75% 30.01 in 10.0 mi North 12.7 mph - N/A   Overcast
2:53 PM 30.9 °F 21.7 °F 23.0 °F 72% 30.03 in 10.0 mi North 11.5 mph - N/A   Mostly Cloudy
3:51 PM 30.2 °F 21.9 °F 23.0 °F 75% 30.02 in 10.0 mi NNE 9.2 mph - N/A   Overcast
3:53 PM 30.9 °F 24.3 °F 23.0 °F 72% 30.05 in 10.0 mi North 6.9 mph - N/A   Overcast
4:53 PM 30.9 °F 24.3 °F 21.9 °F 69% 30.05 in 10.0 mi NE 6.9 mph - N/A   Overcast
5:27 PM 30.2 °F 26.7 °F 21.2 °F 69% 30.03 in 10.0 mi NNE 3.5 mph - N/A   Overcast
6:53 PM 30.0 °F - 21.9 °F 72% 30.08 in 10.0 mi Calm Calm - N/A   Overcast
7:53 PM 30.0 °F - 21.9 °F 72% 30.09 in 10.0 mi Calm Calm - N/A   Overcast
8:53 PM 30.0 °F 26.5 °F 21.9 °F 72% 30.12 in 10.0 mi WNW 3.5 mph - N/A   Overcast
9:53 PM 30.0 °F 24.1 °F 18.0 °F 61% 30.14 in 10.0 mi WNW 5.8 mph - N/A   Overcast
10:53 PM 30.0 °F 25.2 °F 18.0 °F 61% 30.14 in 10.0 mi West 4.6 mph - N/A   Overcast
11:53 PM 30.0 °F 24.1 °F 19.0 °F 64% 30.15 in 10.0 mi West 5.8 mph - N/A   Overcast